User: anonymous   Login
Location: Kolin
(50.0330°N, 15.2000°E)
Time: 19:35:56
(UTC+02:00)
Language:

UWE-3 - Orbit

View from above orbital plane
View from above orbital plane
View from above satellite
View from above satellite

Ground track
Ground track

The orbit data is extracted from the following two-line orbital elements,

1 39446U 13066AG  22224.40311026  .00001154  00000-0  15477-3 0  9999
2 39446  97.6894 186.0657 0066835 266.9423  92.4140 14.79726570468730
Epoch (UTC): 12 August 2022 09:40:28
Eccentricity: 0.0066835
inclination: 97.6894°
perigee height: 583 km
apogee height: 677 km
right ascension of ascending node: 186.0657°
argument of perigee: 266.9423°
revolutions per day: 14.79726570
mean anomaly at epoch: 92.4140°
orbit number at epoch: 46873

The dashed part of the orbit path shows where the satellite is in the earth's shadow,  

DLR